Southern Belle Race - Trap Train/ Inventory

Station: Inventory - T Race

Distance: 1 Miles    

Release: 29-Jun-2020 10:00

Weather Release:    Arrival:

Wind at Release:     Wind at Arrival:

Temp at Release: °    Temp at Arrival: °

Lofts: 275

Birds: 1351

Clocked: 1344

Good Luck to Everyone!
Drops Pos Breeder Pigeon Name Color Sex Ent Arrival Speed To Win Elg PdP100P200
1 Sandstrom Brothers Loft - MN 0222-AU20-SBL BB H 1 10:17:07.60 102.764 00:00:00 Yes
2 Clausing - FL 0040-IF20-CLAU BB H 1 10:21:08.00 83.281 00:04:00 Yes
3 Bill Needham - OH 10942-AU20-AA BB C 1 10:21:14.42 82.861 00:04:07 Yes
4 Leyba’s Loft - CA 0821-AU20-YFR BB H 1 10:21:14.97 82.825 00:04:07 Yes
5 Hi-Cal Connection - CA 0821-AU20-HICA BBWF H 1 10:21:15.00 82.824 00:04:07 Yes
6 Tian Loft - FL 30172-AU20-ARPU BB H 1 10:21:15.38 82.799 00:04:08 Yes
7 Tejano Loft - TX 2012-AU20-TEJA BB H 1 10:21:15.97 82.761 00:04:08 Yes
8 Nick & Sons - WA 58249-AU20-ARPU BB H 1 10:21:16.20 82.746 00:04:09 Yes
9 Hale Nūnū - VA 0002-US20-HALE BB C 1 10:21:16.56 82.722 00:04:09 Yes
10 A H C Loft - FL 37290-AU20-ARPU 🔥⚡️⚡️⚡️⚡ GRIZ H 1 10:21:16.58 82.721 00:04:09 Yes
11 Tian Loft - FL 30168-AU20-ARPU BB H 2 10:21:16.93 82.698 00:04:09 Yes
12 Demers Loft - MI 0004-AU20-DEME BB H 1 10:21:17.29 82.675 00:04:10 Yes
13 Monarcas Loft - GA 6051-AU20-AA BB H 1 10:21:17.77 82.644 00:04:10 Yes
14 Whell's Loft - CA 16318-AU20-AA “Small but Terrible” BCWF H 1 10:21:18.38 82.605 00:04:11 Yes
15 Highland Loft - NY 5699-AU20-ARPU 199 X 160 BBPI H 1 10:21:18.86 82.574 00:04:11 Yes
16 Leyba’s Loft - CA 0812-AU20-YFR BBWF H 2 10:21:18.87 82.573 00:04:11 Yes
17 Neydi Loft - NC 0633-AU20-CV BC H 1 10:21:19.22 82.550 00:04:12 Yes
18 Tongol 11 - NV 22850-AU20-ARPU COVID. 19 BB H 1 10:21:19.33 82.543 00:04:12 Yes
19 335 - NJ 61107-AU20-ARPU GRIZ C 1 10:21:20.53 82.466 00:04:13 Yes
20 Procopoi Loft - GA 41803-AU20-ARPU BB C 1 10:21:20.54 82.465 00:04:13 Yes
21 C E Loft - GA 2214-AU20-CELO Max BC H 1 10:21:20.78 82.450 00:04:13 Yes
22 Arandas Loft - TX 7699-AU20-JEDD BC H 1 10:21:21.38 82.411 00:04:14 Yes
23 Texas Holiday Derby - TX 0595-AU20-GSWC 505 x 536 BB C 1 10:21:22.24 82.356 00:04:15 Lost
24 Malacha Loft - GA 1210-AU20-CHT BBTI H 1 10:21:22.61 82.332 00:04:15 Yes
25 Mya Loft - FL 0071-US20-MYA BC H 1 10:21:23.10 82.301 00:04:15 Yes
26 Capilla Loft - MI 0948-AU20-SMCC Chavo 990 BC H 1 10:21:23.23 82.292 00:04:16 Yes
27 KT Loft - IN 0404-AU20-KTLO BBPI C 1 10:21:24.03 82.241 00:04:16 Yes
28 Cherokee Loft - MI 0626-AU20-CHER 6496x18005 ChampxBlue B BB H 1 10:21:24.61 82.204 00:04:17 Yes
29 Hi-Cal Connection - CA 0787-AU20-HICA BB H 2 10:21:24.64 82.202 00:04:17 Yes
30 Ferrer Family Loft - TX 20511-AU20-WIN BB H 1 10:21:24.88 82.187 00:04:17 Yes
31 B.C. Weaver - FL 32967-AU20-ARPU Pure Griffis Devriendt BCWF H 1 10:21:24.98 82.180 00:04:17 Yes
32 Procopoi Loft - GA 41801-AU20-ARPU BB H 2 10:21:26.07 82.111 00:04:18 Yes
33 Malacha Loft - GA 1226-AU20-CHT BC H 2 10:21:26.09 82.109 00:04:18 Yes
34 Riverside Loft - NJ 0645-IF20-WVC 1024/Dv-836 BB H 1 10:21:26.92 82.056 00:04:19 Yes
35 S Procopoi Loft - GA 41896-AU20-ARPU BB H 1 10:21:27.64 82.010 00:04:20 Yes
36 Erp-Duviel Team - GA 2015-AU20-ERP Flaco×129 BBWF C 1 10:21:27.74 82.004 00:04:20 Yes
37 Magallanes Family Loft - CA 0318-AU20-MAGA BB C 1 10:21:28.30 81.968 00:04:21 Yes
38 Ander Yen - IL 7839-AU20-ARPU DCWF H 1 10:21:28.73 81.941 00:04:21 Lost
38 Zong Jing Tang - FL 34453-AU20-ARPU WPEN C 1 10:21:28.74 81.941 00:04:21 Yes
40 J & L Loft - GA 0047-AU20-JL BB H 1 10:21:29.69 81.880 00:04:22 Yes
41 Flying Glory Loft - WA 28124-AU20-ARPU BB H 1 10:21:30.40 81.835 00:04:23 Yes
42 Ed Ottusch Loft - CT 1969-AU20-WESC BC H 1 10:21:30.44 81.833 00:04:23 Yes
43 Magallanes Family Loft - CA 0340-AU20-MAGA BC H 2 10:21:30.55 81.826 00:04:23 Yes
44 Warren Sawyers Loft - FL 1777-IF20-JAX 2ndchance@1st BB H 1 10:21:30.66 81.819 00:04:23 Yes
45 Team Usa - FL 3353-AU20-ARPU Money Maker BC H 1 10:21:31.97 81.736 00:04:24 Yes
46 Z & R Mandigma Loft - MI 0019-AU20-ZR December 19 BC H 1 10:21:32.50 81.702 00:04:25 Yes
47 ***bird Love To Fly*** - MN 1356908-BE20-BELG GRIZ C 1 10:21:32.59 81.696 00:04:25 Yes
48 Radames Family Loft - FL 10893-AU20-GHC DCSP H 1 10:21:33.53 81.637 00:04:26 Yes
49 Alas De Oro - NV 71034-IF20-E DC C 1 10:21:34.03 81.606 00:04:26 Yes
50 Texas Holiday Derby - TX 0113-AU20-NSL 89446 x 1220 BBWF H 2 10:21:34.25 81.592 00:04:27 Yes
51 Zhengloft - FL 0099-IF20-ZHEN PEN H 1 10:21:34.38 81.583 00:04:27 Yes
52 Neydi Loft - NC 0601-AU20-CV BB H 2 10:21:34.87 81.553 00:04:27 Yes
53 Mesopotamia Loft - MN 4822-AU20-JEDD BB C 1 10:21:35.10 81.538 00:04:28 Yes
54 Zhengloft - FL 0090-IF20-IF BB H 2 10:21:36.42 81.455 00:04:29 Yes
55 Zhongyi Wang - NY 56360-AU20-ARPU BB C 1 10:21:36.54 81.448 00:04:29 Yes
56 KT Loft - IN 0452-AU20-KTLO DC H 2 10:21:37.85 81.365 00:04:30 Missing
57 G & L Loft - OR 1514-AU20-WPC RCPI H 1 10:21:38.10 81.350 00:04:30 Yes
58 A P C Loft - TX 20064-AU20-APC BB C 1 10:21:39.77 81.245 00:04:32 Yes
59 Bud & Barry - MI 0792-AU20-NSL BB H 1 10:21:40.82 81.180 00:04:33 Yes
60 A-Lo-Loft - NY 0058-AU20-ALOL ☯️2868☯️ BLK H 1 10:21:43.30 81.025 00:04:36 Yes
61 Dj Loft Of Utah - UT 0034-AU20-HASH BCWF H 1 10:21:44.13 80.974 00:04:37 Yes
62 Cherokee Loft - MI 0627-AU20-CHER 299x522 EqualizerxAfrican BB H 2 10:21:45.43 80.893 00:04:38 Yes
63 First Flight Loft - GA 0619-AU20-NEA BB H 1 10:21:45.57 80.884 00:04:38 Yes
64 Milestone Loft - CA 1421-AU20-SD BC H 1 10:21:47.13 80.788 00:04:40 Yes
65 Credeur Family Loft - LA 0917-AU20-CFL BC H 1 10:21:47.95 80.737 00:04:40 Yes
66 Medina Loft Fl - FL 2005-AU20-MEDI BB H 1 10:21:49.24 80.657 00:04:42 Yes
67 Custom Feeders By Jerry - TX 2690-AU20-AA "That one" PECH C 1 10:21:49.59 80.636 00:04:42 Yes
68 Nemeth Family Loft - CA 0678-AU20-NEME BB H 1 10:21:49.97 80.613 00:04:42 Lost
69 Xiao Loft - WI 3200-AU20-RAC BB H 1 10:21:53.54 80.393 00:04:46 Missing
70 Delmonte Brothers Loft - FL 64132-AU20-ARPU Express DC H 1 10:21:55.93 80.247 00:04:48 Yes
71 Dave Dudley/Ron Moden - CO 20419-AU20-PUEB BBWF H 1 10:22:00.69 79.958 00:04:53 Yes
72 Serrano Brothers Loft - FL 2082-AU20-SERR DCWF H 1 10:22:01.78 79.892 00:04:54 Yes
73 Barry Yu Loft - TX 0189-AU20-YU BB H 1 10:22:03.85 79.767 00:04:56 Yes
74 Clausing - FL 0160-IF20-CLAU GRIZ H 2 10:22:04.44 79.732 00:04:57 Yes
75 Y Mtn Loft - TN 26682-AU20-YMTN BC H 1 10:22:05.98 79.639 00:04:58 Yes
76 Drama Queen Loft - TX 1065-AU20-GCI BB H 1 10:22:06.59 79.603 00:04:59 Yes
77 Orozco's Loft - MI 0072-AU20-OROZ DC H 1 10:22:07.17 79.568 00:05:00 Yes
78 M & M Lofts - GA 2114-AU20-NEA RC H 1 10:22:07.54 79.546 00:05:00 Yes
79 Team Phoenix - AZ 0150-AU20-TPHO BCWF C 1 10:22:07.92 79.523 00:05:00 Yes
80 Lsu Loft - LA 0458-AU20-LSU BC H 1 10:22:08.01 79.517 00:05:00 Yes
81 The Rios Family/Almanza - NC 0933-IF20-TRC Papa Viejo BB C 1 10:22:09.50 79.428 00:05:02 Yes
82 Andy Owen - GA 0033-AU20-OWEN BB H 1 10:22:10.35 79.378 00:05:03 Yes
83 Flying Dragon Loft - GA 0806-AU20-GA SLT C 1 10:22:10.61 79.362 00:05:03 Yes
84 Y Mtn Loft - TN 26658-AU20-YMTN BBWF H 2 10:22:10.70 79.357 00:05:03 Yes
85 Jiang Tou Loft - TN 8919-AU20-TOU 🟥🟥惊艳🟥🟥 BB H 1 10:22:10.84 79.348 00:05:03 Yes
86 A-Lo-Loft - NY 0071-AU20-ALOL ☯️2847☯️ BC H 2 10:22:11.33 79.319 00:05:04 Yes
87 Wood Brothers - GA 6774-AU20-FOYS BC H 1 10:22:11.82 79.290 00:05:04 Yes
88 Zulu Synd. - VA 0419-IF20-MAIE BBWF C 1 10:22:11.96 79.282 00:05:04 Yes
89 Yendez Loft - TX 0548-AU20-YEND YENDEZ 548 BBSP H 1 10:22:12.91 79.225 00:05:05 Yes
90 Allen Family Racing - NC 0521-AU20-SZL BB C 1 10:22:13.15 79.211 00:05:06 Yes
91 Jboy Loft - MN 0041-AU20-FRON BB H 1 10:22:14.37 79.138 00:05:07 Yes
92 Andy Owen - GA 0028-AU20-OWEN BB H 2 10:22:15.10 79.095 00:05:08 Yes
93 Send An Ace Loft/Bobby Pagdilao - WA 0840-AU20-GSC BB H 1 10:22:15.57 79.067 00:05:08 Yes
94 Romanian Dave. - KS 40569-AU20-ARPU BB H 1 10:22:15.66 79.062 00:05:08 Yes
95 Tejano Loft - TX 2014-AU20-TEJA BB C 2 10:22:15.80 79.054 00:05:08 Yes
96 Flying D Loft - TX 0510-IF20-FLYD Psc 162- Flyd 1027 DC H 1 10:22:15.93 79.046 00:05:08 Yes
97 Marengo Creek Farms - AL 3516-AU20-MCF BB H 1 10:22:17.36 78.962 00:05:10 Yes
98 Alas De Oro - NV 71017-IF20-E SIL C 2 10:22:17.39 78.960 00:05:10 Yes
99 Kenny Chen & Patrick Kwan - FL 2045-AU20-KWAN BC H 1 10:22:18.53 78.893 00:05:11 Yes
100 Lone Peak - UT 0210-AU20-UVI BB H 1 10:22:18.76 78.879 00:05:11 Yes

There are 1327 bird records

Note: These Race Results are unofficial and subject to change until verified by the Race Committee and declared final.